2023/08/02 00:00:00, 0.1,22.6
2023/08/02 00:10:00, 0.1,22.3
2023/08/02 00:20:00, 0.1,22.2
2023/08/02 00:30:00, 0.1,22.6
2023/08/02 00:40:00, 0.1,22.3
2023/08/02 00:50:00, 0.1,22.0
2023/08/02 01:00:00, 0.1,21.9
2023/08/02 01:10:00, 0.1,21.8
2023/08/02 01:20:00, 0.1,21.9
2023/08/02 01:30:00, 0.1,21.9
2023/08/02 01:40:00, 0.1,22.0
2023/08/02 01:50:00, 0.2,21.7
2023/08/02 02:00:00, 0.1,21.7
2023/08/02 02:10:00, 0.2,21.5
2023/08/02 02:20:00, 0.2,21.6
2023/08/02 02:30:00, 0.1,21.6
2023/08/02 02:40:00, 0.1,21.4
2023/08/02 02:50:00, 0.1,21.5
2023/08/02 03:00:00, 0.2,21.8
2023/08/02 03:10:00, 0.2,21.4
2023/08/02 03:20:00, 0.2,21.1
2023/08/02 03:30:00, 0.2,21.2
2023/08/02 03:40:00, 0.2,20.8
2023/08/02 03:50:00, 0.2,21.2
2023/08/02 04:00:00, 0.2,21.2
2023/08/02 04:10:00, 0.2,21.2
2023/08/02 04:20:00, 0.2,20.9
2023/08/02 04:30:00, 0.3,21.2
2023/08/02 04:40:00, 3.6,21.0
2023/08/02 04:50:00, 8.3,21.1
2023/08/02 05:00:00, 9.2,21.1
2023/08/02 05:10:00, 8.8,21.0
2023/08/02 05:20:00, 3.2,20.8
2023/08/02 05:30:00, 0.5,21.0
2023/08/02 05:40:00, 0.4,21.5
2023/08/02 05:50:00, 5.6,21.7
2023/08/02 06:00:00, 6.0,22.3
2023/08/02 06:10:00, 6.0,22.6
2023/08/02 06:20:00, 6.1,23.4
2023/08/02 06:30:00, 3.4,23.8
2023/08/02 06:40:00, 0.2,24.5
2023/08/02 06:50:00, 0.2,25.1
2023/08/02 07:00:00, 0.2,26.0
2023/08/02 07:10:00, 0.2,26.4
2023/08/02 07:20:00, 0.2,27.0
2023/08/02 07:30:00, 2.3,27.8
2023/08/02 07:40:00, 3.4,28.2
2023/08/02 07:50:00, 1.7,28.9
2023/08/02 08:00:00, 5.3,29.5
2023/08/02 08:10:00, 5.1,29.8
2023/08/02 08:20:00, 3.8,30.4
2023/08/02 08:30:00, 1.8,30.8
2023/08/02 08:40:00, 2.6,31.2
2023/08/02 08:50:00, 7.1,31.5
2023/08/02 09:00:00, 6.2,31.7
2023/08/02 09:10:00, 6.3,32.1
2023/08/02 09:20:00, 6.3,32.3
2023/08/02 09:30:00, 3.0,32.5
2023/08/02 09:40:00, 2.8,33.0
2023/08/02 09:50:00, 7.5,33.2
2023/08/02 10:00:00, 7.0,33.5
2023/08/02 10:10:00, 4.4,33.9
2023/08/02 10:20:00, 3.0,33.9
2023/08/02 10:30:00, 2.4,34.7
2023/08/02 10:40:00, 3.7,34.7
2023/08/02 10:50:00, 3.2,34.3
2023/08/02 11:00:00, 1.4,34.9
2023/08/02 11:10:00, 0.7,35.3
2023/08/02 11:20:00, 0.7,34.3
2023/08/02 11:30:00, 1.0,36.0
2023/08/02 11:40:00, 0.8,36.2
2023/08/02 11:50:00, 0.4,34.6
2023/08/02 12:00:00, 1.2,33.6
2023/08/02 12:10:00, 3.9,35.8
2023/08/02 12:20:00, 4.6,34.3
2023/08/02 12:30:00, 3.0,33.9
2023/08/02 12:40:00, 2.4,33.4
2023/08/02 12:50:00, 0.7,33.6
2023/08/02 13:00:00, 3.0,35.9
2023/08/02 13:10:00, 6.0,35.1
2023/08/02 13:20:00, 6.3,35.4
2023/08/02 13:30:00, 6.0,35.0
2023/08/02 13:40:00, 5.7,35.2
2023/08/02 13:50:00, 2.9,34.0
2023/08/02 14:00:00, 0.5,34.2
2023/08/02 14:10:00, 2.4,35.7
2023/08/02 14:20:00, 5.7,37.1
2023/08/02 14:30:00, 6.1,37.9
2023/08/02 14:40:00, 6.4,38.2
2023/08/02 14:50:00, 6.4,37.8
2023/08/02 15:00:00, 6.2,37.5
2023/08/02 15:10:00, 5.7,37.5
2023/08/02 15:20:00, 5.5,36.5
2023/08/02 15:30:00, 5.0,36.7
2023/08/02 15:40:00, 2.0,36.5
2023/08/02 15:50:00, 0.9,36.2
2023/08/02 16:00:00, 0.4,35.4
2023/08/02 16:10:00, 0.4,34.1
2023/08/02 16:20:00, 0.4,33.4
2023/08/02 16:30:00, 0.4,33.3
2023/08/02 16:40:00, 0.6,32.8
2023/08/02 16:50:00, 2.7,32.1
2023/08/02 17:00:00, 3.1,31.7
2023/08/02 17:10:00, 2.0,31.7
2023/08/02 17:20:00, 0.9,31.3
2023/08/02 17:30:00, 0.4,32.1
2023/08/02 17:40:00, 0.4,32.4
2023/08/02 17:50:00, 0.4,32.2
2023/08/02 18:00:00, 0.4,31.3
2023/08/02 18:10:00, 0.4,30.5
2023/08/02 18:20:00, 0.4,29.5
2023/08/02 18:30:00, 0.4,29.0
2023/08/02 18:40:00, 0.2,29.0
2023/08/02 18:50:00, 0.2,28.6
2023/08/02 19:00:00, 0.2,27.7
2023/08/02 19:10:00, 0.2,27.2
2023/08/02 19:20:00, 0.1,26.9
2023/08/02 19:30:00, 0.1,26.8
2023/08/02 19:40:00, 0.1,26.4
2023/08/02 19:50:00, 0.1,26.0
2023/08/02 20:00:00, 0.1,25.9
2023/08/02 20:10:00, 0.1,26.4
2023/08/02 20:20:00, 0.1,26.3
2023/08/02 20:30:00, 0.1,27.0
2023/08/02 20:40:00, 0.1,27.2
2023/08/02 20:50:00, 0.2,27.6
2023/08/02 21:00:00, 0.2,27.6
2023/08/02 21:10:00, 0.1,27.6
2023/08/02 21:20:00, 0.1,27.6
2023/08/02 21:30:00, 0.2,27.5
2023/08/02 21:40:00, 0.1,27.1
2023/08/02 21:50:00, 0.1,26.4
2023/08/02 22:00:00, 0.2,26.9
2023/08/02 22:10:00, 0.3,27.2
2023/08/02 22:20:00, 0.2,27.2
2023/08/02 22:30:00, 2.6,27.1
2023/08/02 22:40:00, 1.8,26.2
2023/08/02 22:50:00, 2.4,26.1
2023/08/02 23:00:00, 1.7,26.9
2023/08/02 23:10:00, 0.1,26.2
2023/08/02 23:20:00, 0.1,25.6
2023/08/02 23:30:00, 0.1,25.4
2023/08/02 23:40:00, 0.1,26.2
2023/08/02 23:50:00, 0.1,26.1
